Zurück zum Katalog

OPS 4682 DEB

AktivPO
NORAD 19950·DEBRIS·🇺🇸 United States

Gestartet Apr 3, 1965 von Vandenberg Space Force Base

Loading…

Nächste Überflüge (nächste 24 Stunden)

TLE

VeraltetSource: Space-Track

Epoche: Aug 31, 2026, 18:46 UTC

1 19950U 65027AY  26243.78230833  .00000220  00000-0  75827-3 0  9991
2 19950  90.2487  10.9900 0029116 354.0443   6.0326 12.95027061562437

Verfolge OPS 4682 DEB in Echtzeit mit AllMySat

Download on the App Store